Location: Plymouth Junction
(43.2275°N, 93.1308°W)
Time: 04:29:11
(UTC+00:00)

Envisat - Pass Details

Date: 06 October 2024
Orbit: 762 x 763 km, 98.3° (Epoch: 04 November)

Event Time Altitude Azimuth Distance (km) Brightness Sun altitude
Rises 09:13:16 0° 15° (NNE) 3,236 6.8 -33.2°
Reaches altitude 10° 09:15:36 10° 18° (NNE) 2,305 5.9 -32.8°
Enters shadow 09:18:53 40° 30° (NNE) 1,112 4.1 -32.3°
